Bangkok (Don Mueang), Thailand

5:11 AM +07 on November 24, 2017 (GMT +0700)
Bangkok International

Weather History for VTBD - May, 2013

Change the Weather History Date:

Thursday, May 30, 2013

  Actual Average Record
Temperature  
Mean Temperature 88 °F -  
Max Temperature 94 °F 91 °F 98 °F (1997)
Min Temperature 83 °F 77 °F 37 °F (2001)
Cooling Degree Days 24    
Growing Degree Days 38 (Base 50)    
Moisture  
Dew Point 76 °F    
Average Humidity 69    
Maximum Humidity 89    
Minimum Humidity 47    
Precipitation  
Precipitation 0.00 in 0.18 in - ()
Sea Level Pressure  
Sea Level Pressure 29.77 in    
Wind  
Wind Speed 4 mph ()    
Max Wind Speed 14 mph    
Max Gust Speed -    
Visibility 5.9 miles    
Events Rain , Thunderstorm    
Averages and records for this station are not official NWS values.
T = Trace of Precipitation, MM = Missing Value Source: Averaged Metar Reports

Daily Weather History Graph

Daily Weather History Graph

Search for Another Location

Airport or City:

Trip Planner

Search our weather history database for the weather conditions in past years. The results will help you decide how hot, cold, wet, or windy it might be!

Date:

Astronomy

May. 30, 2013 Rise Set
Actual Time 5:48 AM +07 6:41 PM +07
Civil Twilight 5:25 AM +07 7:04 PM +07
Nautical Twilight 4:58 AM +07 7:32 PM +07
Astronomical Twilight 4:30 AM +07 8:00 PM +07
Moon 11:36 PM +07 (5/30) 10:50 AM +07 (5/30)
Length of Visible Light 13h 39m
Length of Day
12h 52m
Waning Gibbous, 67% of the Moon is Illuminated
May 30
Waning Gibbous
Jun 1
Last Quarter
Jun 8
New
Jun 17
First Quarter
Jun 23
Full

Hourly Weather History & Observations

Time (+07) Temp. Heat Index Dew Point Humidity Pressure Visibility Wind Dir Wind Speed Gust Speed Precip Events Conditions
12:00 AM 87.8 °F 99.7 °F 77.0 °F 70% 29.80 in 6.2 mi SSE 3.5 mph - N/A Rain Light Rain
12:30 AM 87.8 °F 102.5 °F 78.8 °F 75% 29.77 in 6.2 mi SSE 3.5 mph - N/A   Mostly Cloudy
1:00 AM 88 °F - 78 °F 66% 29.79 in 6 mi South 2.3 mph - - Rain Light Rain
1:00 AM 87.8 °F 99.7 °F 77.0 °F 70% 29.77 in 6.2 mi South 2.3 mph - N/A   Mostly Cloudy
1:30 AM 87.8 °F 102.5 °F 78.8 °F 75% 29.77 in 6.2 mi ESE 2.3 mph - N/A   Mostly Cloudy
2:00 AM 87.8 °F 102.5 °F 78.8 °F 75% 29.77 in 6.2 mi ESE 4.6 mph - N/A   Mostly Cloudy
2:30 AM 87.8 °F 102.5 °F 78.8 °F 75% 29.74 in 6.2 mi SSE 2.3 mph - N/A   Mostly Cloudy
3:00 AM 86.0 °F 99.3 °F 78.8 °F 79% 29.74 in 6.2 mi SSE 3.5 mph - N/A   Mostly Cloudy
3:30 AM 86.0 °F 101.9 °F 80.6 °F 84% 29.74 in 6.2 mi ESE 3.5 mph - N/A   Mostly Cloudy
4:00 AM 84.2 °F 98.3 °F 80.6 °F 89% 29.74 in 6.2 mi SE 2.3 mph - N/A   Mostly Cloudy
4:30 AM 84.2 °F 98.3 °F 80.6 °F 89% 29.74 in 5.6 mi Variable 1.2 mph - N/A   Mostly Cloudy
5:00 AM 84.2 °F 98.3 °F 80.6 °F 89% 29.77 in 5.6 mi South 2.3 mph - N/A   Mostly Cloudy
5:30 AM 84.2 °F 96.1 °F 78.8 °F 84% 29.77 in 5.0 mi East 4.6 mph - N/A   Mostly Cloudy
6:00 AM 84.2 °F 98.3 °F 80.6 °F 89% 29.77 in 4.3 mi East 3.5 mph - N/A   Mostly Cloudy
6:30 AM 84.2 °F 96.1 °F 78.8 °F 84% 29.80 in 4.3 mi SE 4.6 mph - N/A   Mostly Cloudy
7:00 AM 84 °F - 79 °F 81% 29.82 in 5 mi SSE 5.8 mph - -   Mist
7:00 AM 84.2 °F 96.1 °F 78.8 °F 84% 29.80 in 5.0 mi SSE 5.8 mph - N/A   Mostly Cloudy
7:30 AM 84.2 °F 96.1 °F 78.8 °F 84% 29.80 in 4.3 mi SE 8.1 mph - N/A Thunderstorm Thunderstorm
8:00 AM 84.2 °F 96.1 °F 78.8 °F 84% 29.80 in 5.0 mi ESE 5.8 mph - N/A   Mostly Cloudy
8:30 AM 84.2 °F 94.1 °F 77.0 °F 79% 29.83 in 6.2 mi ESE 5.8 mph - N/A   Mostly Cloudy
9:00 AM 86.0 °F 96.9 °F 77.0 °F 74% 29.83 in 6.2 mi ESE 5.8 mph - N/A   Mostly Cloudy
9:30 AM 86.0 °F 96.9 °F 77.0 °F 74% 29.83 in 6.2 mi East 5.8 mph - N/A   Mostly Cloudy
10:00 AM 87.8 °F 99.7 °F 77.0 °F 70% 29.83 in 6.2 mi ESE 4.6 mph - N/A   Mostly Cloudy
10:30 AM 87.8 °F 99.7 °F 77.0 °F 70% 29.83 in 6.2 mi ESE 5.8 mph - N/A   Mostly Cloudy
11:00 AM 89.6 °F 104.7 °F 78.8 °F 70% 29.80 in 6.2 mi ESE 5.8 mph - N/A   Mostly Cloudy
11:30 AM 91.4 °F 105.1 °F 77.0 °F 63% 29.80 in 6.2 mi NE 2.3 mph - N/A   Mostly Cloudy
12:00 PM 91.4 °F 105.1 °F 77.0 °F 63% 29.77 in 6.2 mi ESE 2.3 mph - N/A   Mostly Cloudy
12:30 PM 93.2 °F 107.2 °F 77.0 °F 59% 29.77 in 6.2 mi East 4.6 mph - N/A   Mostly Cloudy
1:00 PM 94 °F - 76 °F 47% 29.78 in 6 mi East 3.5 mph - -   Partly Cloudy
1:00 PM 95.0 °F 107.4 °F 75.2 °F 53% 29.77 in 6.2 mi East 3.5 mph - N/A   Mostly Cloudy
1:30 PM 95.0 °F 107.4 °F 75.2 °F 53% 29.74 in 6.2 mi NNE 3.5 mph - N/A   Mostly Cloudy
2:00 PM 95.0 °F 107.4 °F 75.2 °F 53% 29.74 in 6.2 mi NNW 9.2 mph - N/A   Mostly Cloudy
2:30 PM 93.2 °F 105.0 °F 75.2 °F 56% 29.71 in 6.2 mi NNW 6.9 mph - N/A   Mostly Cloudy
3:00 PM 93.2 °F 105.0 °F 75.2 °F 56% 29.71 in 6.2 mi NNW 6.9 mph - N/A   Mostly Cloudy
3:30 PM 93.2 °F 102.4 °F 73.4 °F 52% 29.71 in 6.2 mi NNW 6.9 mph - N/A   Mostly Cloudy
4:00 PM 93.2 °F 102.4 °F 73.4 °F 52% 29.68 in 6.2 mi NNW 8.1 mph - N/A   Mostly Cloudy
4:30 PM 91.4 °F 100.1 °F 73.4 °F 55% 29.68 in 6.2 mi NNW 6.9 mph - N/A   Mostly Cloudy
5:00 PM 91.4 °F 102.5 °F 75.2 °F 59% 29.71 in 6.2 mi North 3.5 mph - N/A   Mostly Cloudy
5:30 PM 91.4 °F 102.5 °F 75.2 °F 59% 29.71 in 6.2 mi NNE 3.5 mph - N/A   Mostly Cloudy
6:00 PM 91.4 °F 100.1 °F 73.4 °F 55% 29.74 in 6.2 mi SSE 13.8 mph - N/A   Mostly Cloudy
6:30 PM 86.0 °F 93.4 °F 73.4 °F 66% 29.74 in 6.2 mi SSE 5.8 mph - N/A   Mostly Cloudy
7:00 PM 86 °F - 71 °F 51% 29.75 in 6 mi SE 3.5 mph - -   Scattered Clouds
7:00 PM 86.0 °F 90.4 °F 69.8 °F 58% 29.74 in 6.2 mi SE 3.5 mph - N/A   Mostly Cloudy
7:30 PM 86.0 °F 91.8 °F 71.6 °F 62% 29.77 in 6.2 mi SE 3.5 mph - N/A   Mostly Cloudy
8:00 PM 86.0 °F 93.4 °F 73.4 °F 66% 29.77 in 6.2 mi SE 3.5 mph - N/A   Mostly Cloudy
8:30 PM 86.0 °F 93.4 °F 73.4 °F 66% 29.77 in 6.2 mi ESE 5.8 mph - N/A   Mostly Cloudy
9:00 PM 86.0 °F 93.4 °F 73.4 °F 66% 29.80 in 6.2 mi South 3.5 mph - N/A   Mostly Cloudy
9:30 PM 86.0 °F 95.1 °F 75.2 °F 70% 29.80 in 5.6 mi South 3.5 mph - N/A   Mostly Cloudy
10:00 PM 86.0 °F 95.1 °F 75.2 °F 70% 29.83 in 5.6 mi SSE 3.5 mph - N/A   Mostly Cloudy
10:30 PM 84.2 °F 92.3 °F 75.2 °F 74% 29.83 in 5.0 mi South 3.5 mph - N/A   Mostly Cloudy
11:00 PM 84.2 °F 92.3 °F 75.2 °F 74% 29.83 in 5.0 mi South 4.6 mph - N/A   Mostly Cloudy
11:30 PM 84.2 °F 92.3 °F 75.2 °F 74% 29.83 in 5.0 mi SSE 2.3 mph - N/A   Mostly Cloudy